Overview Statistics Trail Chart Weather Telemetry Raw packets
 

This is the latest recevied weather packets stored in our database for station/object K0QED. If no packets are shown the sender has not sent any weather packets the latest 10 day(s).

<< 50 51 52 53 54 55 56 >>
Time Temp. Humidity Pressure Rain* Wind** Luminosity Snow
1788281943 19.44° C 55% 1027.5 hPa 0 mm - 234 W/m² -
1788281638 19.44° C 54% 1027.7 hPa 0 mm - 177 W/m² -
1788281335 19.44° C 56% 1027.9 hPa 0 mm - 183 W/m² -
1788281030 19.44° C 56% 1027.5 hPa 0 mm - 223 W/m² -
1788280733 19.44° C 57% 1027.4 hPa 0 mm - 208 W/m² -
1788280425 18.89° C 56% 1027.7 hPa 0 mm - 216 W/m² -
1788280125 18.89° C 56% 1027.5 hPa 0 mm - 191 W/m² -
1788279824 18.33° C 61% 1027.5 hPa 0 mm - 193 W/m² -
1788279518 18.33° C 63% 1027.4 hPa 0 mm - 180 W/m² -
1788279212 17.78° C 63% 1027.2 hPa 0 mm - 162 W/m² -
1788278907 17.78° C 64% 1027.6 hPa 0 mm - 148 W/m² -
1788278604 17.22° C 67% 1027.5 hPa 0 mm - 134 W/m² -
1788278303 16.67° C 70% 1027.5 hPa 0 mm - 125 W/m² -
1788277998 16.67° C 72% 1027.5 hPa 0 mm - 100 W/m² -
1788277695 16.67° C 73% 1027.4 hPa 0 mm - 87 W/m² -
1788277394 16.11° C 75% 1027.2 hPa 0 mm - 74 W/m² -
1788277089 16.11° C 75% 1027.2 hPa 0 mm - 71 W/m² -
1788276788 16.11° C 75% 1027.2 hPa 0 mm - 72 W/m² -
1788276487 16.11° C 79% 1027.5 hPa 0 mm - 68 W/m² -
1788276187 15.56° C 83% 1027.4 hPa 0 mm - 61 W/m² -
1788275882 15.56° C 83% 1027.2 hPa 0 mm - 65 W/m² -
1788275576 15° C 83% 1027.1 hPa 0 mm - 81 W/m² -
1788275276 15° C 83% 1027.4 hPa 0 mm - 72 W/m² -
1788274974 15° C 84% 1027 hPa 0 mm - 62 W/m² -
1788274672 15° C 85% 1027 hPa 0 mm - 50 W/m² -

* Rain latest hour (hover to see other rain measurements)
** Current wind speed in m/s (hover to see current wind gust speed)